NOZ8C ENGM-ENCN

Flight info

Callsign NOZ8C
Flight time N/A
Altitude 22000
Route VIPPA DCT OSVAL
Aircraft B738/M-SDE2E3FGHIRWXY/LB1

Departure

Time 2026-05-04 20:21
Airport Oslo-Gardermoen International Airport (ENGM)

Arrival

Time N/A
Airport Kristiansand Airport (ENCN)
Time Latitude Longitude Altitude Speed Heading
2026-05-04 19:33 60.19532 11.09654 690 ft 0 kts 201°
2026-05-04 19:34 60.19532 11.09655 690 ft 0 kts 196°
2026-05-04 19:38 60.19531 11.09653 690 ft 0 kts 196°
2026-05-04 20:08 60.19537 11.09656 654 ft 4 kts 196°
2026-05-04 20:08 60.19562 11.09672 685 ft 4 kts 197°
2026-05-04 20:09 60.19573 11.09678 684 ft 0 kts 197°
2026-05-04 20:13 60.19573 11.09645 686 ft 3 kts 284°
2026-05-04 20:13 60.19590 11.09601 688 ft 7 kts 325°
2026-05-04 20:14 60.19641 11.09574 690 ft 8 kts
2026-05-04 20:14 60.19697 11.09608 690 ft 9 kts 18°
2026-05-04 20:14 60.19763 11.09648 690 ft 11 kts 16°
2026-05-04 20:14 60.19839 11.09691 684 ft 12 kts 15°
2026-05-04 20:15 60.19926 11.09740 690 ft 14 kts 15°
2026-05-04 20:15 60.19989 11.09849 690 ft 13 kts 87°
2026-05-04 20:15 60.19969 11.10023 684 ft 13 kts 105°
2026-05-04 20:15 60.19944 11.10191 689 ft 12 kts 107°
2026-05-04 20:16 60.19921 11.10354 684 ft 12 kts 106°
2026-05-04 20:16 60.19898 11.10514 687 ft 12 kts 104°
2026-05-04 20:16 60.19878 11.10669 687 ft 11 kts 104°
2026-05-04 20:16 60.19855 11.10820 690 ft 11 kts 108°
2026-05-04 20:17 60.19832 11.10980 688 ft 14 kts 105°
2026-05-04 20:17 60.19806 11.11169 686 ft 14 kts 105°
2026-05-04 20:17 60.19776 11.11350 687 ft 13 kts 116°
2026-05-04 20:17 60.19737 11.11514 686 ft 12 kts 108°
2026-05-04 20:18 60.19714 11.11668 687 ft 11 kts 106°
2026-05-04 20:18 60.19707 11.11720 682 ft 0 kts 106°
2026-05-04 20:18 60.19707 11.11721 683 ft 1 kts 106°
2026-05-04 20:19 60.19705 11.11737 684 ft 4 kts 106°
2026-05-04 20:19 60.19687 11.11819 685 ft 7 kts 124°
2026-05-04 20:19 60.19649 11.11875 687 ft 7 kts 157°
2026-05-04 20:19 60.19599 11.11911 684 ft 9 kts 163°
2026-05-04 20:20 60.19533 11.11915 689 ft 10 kts 193°
2026-05-04 20:20 60.19514 11.11903 688 ft 0 kts 198°
2026-05-04 20:20 60.19513 11.11903 688 ft 1 kts 198°
2026-05-04 20:20 60.19373 11.11826 687 ft 57 kts 195°
2026-05-04 20:21 60.18724 11.11448 690 ft 134 kts 195°
2026-05-04 20:21 60.17664 11.10795 962 ft 171 kts 199°
2026-05-04 20:21 60.15422 11.09413 2572 ft 189 kts 203°
2026-05-04 20:22 60.14055 11.08665 2858 ft 217 kts 201°
2026-05-04 20:22 60.12512 11.08113 3205 ft 238 kts 191°
2026-05-04 20:22 60.10787 11.07746 3587 ft 257 kts 191°
2026-05-04 20:22 60.08984 11.07345 4369 ft 262 kts 191°
2026-05-04 20:23 60.07180 11.06953 5381 ft 262 kts 191°
2026-05-04 20:23 60.05361 11.06447 6282 ft 263 kts 198°
2026-05-04 20:23 60.03622 11.05354 7201 ft 262 kts 205°
2026-05-04 20:23 60.01898 11.04066 8073 ft 266 kts 206°
2026-05-04 20:24 60.00171 11.02749 9033 ft 266 kts 206°
2026-05-04 20:24 59.98439 11.01442 9948 ft 266 kts 208°
2026-05-04 20:24 59.96686 11.00121 10378 ft 284 kts 208°
2026-05-04 20:24 59.94747 10.98661 10600 ft 308 kts 208°
2026-05-04 20:25 59.92695 10.97148 11182 ft 318 kts 208°
2026-05-04 20:25 59.90604 10.95633 11975 ft 321 kts 208°
2026-05-04 20:25 59.88494 10.94113 12821 ft 323 kts 208°
2026-05-04 20:25 59.86368 10.92590 13638 ft 326 kts 209°
2026-05-04 20:26 59.84222 10.91054 14377 ft 328 kts 209°
2026-05-04 20:26 59.82059 10.89505 15106 ft 331 kts 209°
2026-05-04 20:26 59.79922 10.87975 15844 ft 332 kts 210°
2026-05-04 20:26 59.77727 10.86415 16548 ft 336 kts 210°
2026-05-04 20:27 59.75516 10.84833 17222 ft 339 kts 210°
2026-05-04 20:27 59.73294 10.83249 18035 ft 339 kts 210°
2026-05-04 20:27 59.71083 10.81680 18775 ft 336 kts 210°
2026-05-04 20:27 59.68882 10.80118 19483 ft 336 kts 210°
2026-05-04 20:28 59.66672 10.78548 20151 ft 336 kts 210°
2026-05-04 20:28 59.64468 10.76983 20675 ft 338 kts 210°
2026-05-04 20:28 59.62259 10.75421 20716 ft 335 kts 210°
2026-05-04 20:28 59.60064 10.73871 20756 ft 334 kts 210°
2026-05-04 20:29 59.57871 10.72321 20762 ft 335 kts 210°
2026-05-04 20:29 59.55670 10.70768 20773 ft 336 kts 210°
2026-05-04 20:29 59.53448 10.69306 20771 ft 342 kts 205°
2026-05-04 20:29 59.51125 10.68298 20778 ft 347 kts 201°
2026-05-04 20:30 59.48732 10.67483 20771 ft 349 kts 200°
2026-05-04 20:30 59.46327 10.66713 20770 ft 349 kts 200°
2026-05-04 20:30 59.43960 10.65947 20718 ft 348 kts 200°
2026-05-04 20:30 59.41576 10.65152 20768 ft 346 kts 200°
2026-05-04 20:31 59.39202 10.64337 20773 ft 346 kts 200°
2026-05-04 20:31 59.36816 10.63503 20773 ft 346 kts 201°
2026-05-04 20:31 59.34434 10.62663 20777 ft 347 kts 201°
2026-05-04 20:31 59.32063 10.61823 20775 ft 347 kts 201°
2026-05-04 20:32 59.29685 10.60981 21005 ft 347 kts 201°
2026-05-04 20:32 59.27305 10.60138 21007 ft 347 kts 201°
2026-05-04 20:32 59.24929 10.59298 21001 ft 348 kts 201°
2026-05-04 20:32 59.22550 10.58458 20991 ft 348 kts 201°
2026-05-04 20:33 59.20189 10.57626 20975 ft 348 kts 201°
2026-05-04 20:33 59.17804 10.56789 20961 ft 347 kts 201°
2026-05-04 20:33 59.16219 10.56230 20913 ft 347 kts 200°
2026-05-04 20:33 59.13056 10.55118 20926 ft 348 kts 200°
2026-05-04 20:34 59.10669 10.54280 20915 ft 349 kts 200°
2026-05-04 20:34 59.09083 10.53724 20904 ft 349 kts 200°
2026-05-04 20:34 59.06694 10.52832 20881 ft 345 kts 205°
2026-05-04 20:34 59.04606 10.50884 20808 ft 325 kts 224°
2026-05-04 20:35 59.02965 10.47978 20795 ft 315 kts 237°
2026-05-04 20:35 59.01694 10.44543 20793 ft 312 kts 242°
2026-05-04 20:35 59.00499 10.41009 20792 ft 312 kts 242°
2026-05-04 20:35 58.99319 10.37489 20792 ft 312 kts 242°
2026-05-04 20:36 58.98122 10.33958 20791 ft 312 kts 242°
2026-05-04 20:36 58.96921 10.30457 20792 ft 312 kts 242°
2026-05-04 20:36 58.95725 10.27002 20825 ft 316 kts 242°
2026-05-04 20:36 58.94489 10.23442 21294 ft 319 kts 241°
2026-05-04 20:37 58.93199 10.19924 21762 ft 321 kts 239°
2026-05-04 20:37 58.91874 10.16513 21739 ft 310 kts 238°
2026-05-04 20:37 58.90593 10.13279 21606 ft 299 kts 238°
2026-05-04 20:37 58.89347 10.10141 21469 ft 290 kts 238°
2026-05-04 20:38 58.88129 10.07062 21138 ft 287 kts 239°
2026-05-04 20:38 58.86922 10.03996 20735 ft 286 kts 239°
2026-05-04 20:38 58.85717 10.00930 20350 ft 286 kts 239°
2026-05-04 20:38 58.84516 9.97875 19998 ft 284 kts 239°
2026-05-04 20:39 58.83322 9.94843 19653 ft 282 kts 239°
2026-05-04 20:39 58.82132 9.91821 19296 ft 281 kts 239°
2026-05-04 20:39 58.80964 9.88858 18960 ft 280 kts 239°
2026-05-04 20:39 58.79784 9.85869 18628 ft 279 kts 239°
2026-05-04 20:40 58.78610 9.82898 18293 ft 277 kts 239°
2026-05-04 20:40 58.77444 9.79949 17940 ft 276 kts 239°
2026-05-04 20:40 58.76281 9.77011 17561 ft 275 kts 239°
2026-05-04 20:40 58.75121 9.74087 17189 ft 274 kts 239°
2026-05-04 20:41 58.73966 9.71178 16815 ft 273 kts 239°
2026-05-04 20:41 58.72814 9.68278 16462 ft 271 kts 238°
2026-05-04 20:41 58.71668 9.65397 16106 ft 270 kts 238°
2026-05-04 20:41 58.70541 9.62568 15764 ft 269 kts 238°
2026-05-04 20:42 58.69388 9.59677 15410 ft 268 kts 238°
2026-05-04 20:42 58.68267 9.56871 15081 ft 267 kts 238°
2026-05-04 20:42 58.67137 9.54041 14674 ft 268 kts 237°
2026-05-04 20:42 58.65997 9.51191 14269 ft 269 kts 237°
2026-05-04 20:43 58.64856 9.48348 13967 ft 267 kts 237°
2026-05-04 20:43 58.63723 9.45525 13652 ft 266 kts 237°
2026-05-04 20:43 58.62591 9.42709 13298 ft 265 kts 237°
2026-05-04 20:43 58.61468 9.39914 12948 ft 264 kts 237°
2026-05-04 20:44 58.60343 9.37120 12613 ft 263 kts 237°
2026-05-04 20:44 58.59228 9.34355 12284 ft 262 kts 237°
2026-05-04 20:44 58.58115 9.31598 11966 ft 260 kts 237°
2026-05-04 20:44 58.57026 9.28904 11718 ft 258 kts 237°
2026-05-04 20:45 58.55926 9.26185 11475 ft 258 kts 237°
2026-05-04 20:45 58.54830 9.23475 11210 ft 258 kts 237°
2026-05-04 20:45 58.53730 9.20762 10955 ft 258 kts 237°
2026-05-04 20:45 58.52629 9.18047 10712 ft 258 kts 237°
2026-05-04 20:46 58.51530 9.15338 10457 ft 258 kts 236°
2026-05-04 20:46 58.50428 9.12630 10201 ft 257 kts 236°
2026-05-04 20:46 58.49328 9.09930 9956 ft 257 kts 236°
2026-05-04 20:46 58.48234 9.07252 9897 ft 255 kts 236°
2026-05-04 20:47 58.47196 9.04548 9853 ft 252 kts 243°
2026-05-04 20:47 58.46421 9.01612 9815 ft 244 kts 248°
2026-05-04 20:47 58.45727 8.98637 9454 ft 244 kts 249°
2026-05-04 20:47 58.45048 8.95686 9145 ft 242 kts 249°
2026-05-04 20:48 58.44371 8.92771 8904 ft 239 kts 249°
2026-05-04 20:48 58.43695 8.89887 8636 ft 236 kts 249°
2026-05-04 20:48 58.43023 8.87042 8387 ft 233 kts 249°
2026-05-04 20:48 58.42356 8.84239 8117 ft 231 kts 249°
2026-05-04 20:49 58.41689 8.81450 7866 ft 229 kts 248°
2026-05-04 20:49 58.41028 8.78737 7613 ft 228 kts 248°
2026-05-04 20:49 58.40367 8.76008 7385 ft 224 kts 248°
2026-05-04 20:49 58.39726 8.73354 7267 ft 218 kts 248°
2026-05-04 20:50 58.39096 8.70742 7076 ft 216 kts 249°
2026-05-04 20:50 58.38458 8.68098 6848 ft 222 kts 249°
2026-05-04 20:50 58.37803 8.65385 6601 ft 228 kts 249°
2026-05-04 20:50 58.37133 8.62613 6339 ft 231 kts 249°
2026-05-04 20:51 58.36457 8.59828 6071 ft 230 kts 249°
2026-05-04 20:51 58.35793 8.57094 5787 ft 229 kts 249°
2026-05-04 20:51 58.35125 8.54362 5592 ft 225 kts 249°
2026-05-04 20:51 58.34476 8.51716 5475 ft 216 kts 249°
2026-05-04 20:52 58.33850 8.49171 5395 ft 208 kts 249°
2026-05-04 20:52 58.33259 8.46720 5302 ft 199 kts 254°
2026-05-04 20:52 58.33148 8.44226 5247 ft 182 kts 277°
2026-05-04 20:52 58.33475 8.42031 5162 ft 170 kts 296°
2026-05-04 20:53 58.34124 8.40214 5006 ft 164 kts 298°
2026-05-04 20:53 58.34761 8.38450 4852 ft 162 kts 299°
2026-05-04 20:53 58.35400 8.36699 4655 ft 157 kts 300°
2026-05-04 20:53 58.36014 8.35028 4434 ft 151 kts 300°
2026-05-04 20:54 58.36537 8.33349 4255 ft 147 kts 282°
2026-05-04 20:54 58.36259 8.31520 4088 ft 155 kts 235°
2026-05-04 20:54 58.35573 8.29931 3902 ft 156 kts 242°
2026-05-04 20:54 58.34851 8.28333 3683 ft 167 kts 230°
2026-05-04 20:55 58.33987 8.26844 3501 ft 166 kts 229°
2026-05-04 20:55 58.33095 8.25445 3291 ft 166 kts 225°
2026-05-04 20:55 58.32167 8.24150 3128 ft 165 kts 223°
2026-05-04 20:55 58.31260 8.22935 2959 ft 153 kts 223°
2026-05-04 20:56 58.30426 8.21841 2746 ft 137 kts 218°
2026-05-04 20:56 58.29555 8.21028 2486 ft 142 kts 225°
2026-05-04 20:56 58.28905 8.19845 2411 ft 137 kts 226°
2026-05-04 20:56 58.28126 8.18764 2142 ft 140 kts 221°
2026-05-04 20:57 58.27341 8.17730 1892 ft 135 kts 221°
2026-05-04 20:57 58.26577 8.16712 1645 ft 132 kts 220°
2026-05-04 20:57 58.25836 8.15729 1435 ft 129 kts 220°
2026-05-04 20:57 58.25091 8.14735 1225 ft 132 kts 219°
2026-05-04 20:58 58.24308 8.13716 989 ft 135 kts 219°
2026-05-04 20:58 58.23575 8.12708 794 ft 135 kts 208°
2026-05-04 20:58 58.22729 8.11800 591 ft 138 kts 214°
2026-05-04 20:58 58.22002 8.10663 395 ft 129 kts 211°
2026-05-04 20:59 58.21235 8.09744 722 ft 129 kts 217°
2026-05-04 20:59 58.20504 8.08960 1693 ft 118 kts 220°
2026-05-04 20:59 58.19666 8.08002 1979 ft 171 kts 221°
2026-05-04 20:59 58.18515 8.06547 2189 ft 215 kts 220°
2026-05-04 21:00 58.17239 8.05020 2414 ft 220 kts 219°
2026-05-04 21:00 58.16027 8.03254 2374 ft 228 kts 232°
2026-05-04 21:00 58.14876 8.00947 2847 ft 257 kts 232°
2026-05-04 21:00 58.13519 7.98702 2991 ft 264 kts 213°
2026-05-04 21:01 58.11857 7.97183 2686 ft 266 kts 212°
2026-05-04 21:01 58.10172 7.95632 2013 ft 275 kts 213°
2026-05-04 21:01 58.08417 7.94107 1851 ft 269 kts 205°